カタログに戻る

KOSMOS-2543 PROJECTILE

運用中軍事SSO
NORAD 45915·PAYLOAD·🇷🇺 Russia
この衛星名は、まだ公式ソースで確認されていません。

打ち上げ Nov 25, 2019 から Plesetsk Cosmodrome

Loading…

次のパス (今後24時間)

TLE

最新Source: Space-Track

元期: Sep 14, 2026, 14:58 UTC

1 45915U 19079E   26257.62394675  .00001880  00000-0  17076-3 0  9995
2 45915  97.6687 258.9831 0169943  53.3949 308.2764 14.86050130332938

AllMySatでKOSMOS-2543 PROJECTILEをリアルタイム追跡

Download on the App Store